Погода в Ашулуке

Россия / Астраханская область     47°19′08″N   47°24′06″E
темп.,
°C
ветер,
м/с
пор.,
м/с
влажн.,
%
обл.,
%
осадки,
мм/ч
давл.,
гПа
погр.,
м
16 мая, вс
вс1601:00+22юв46340 0.0 101681
04:00+21в59330 0.0 1015115
07:00+22вюв511410 0.0 1015243
10:00+31юв912220 0.0 10151519
13:00+33юв1111153 0.0 10143469
16:00+33юв1212140 0.0 10143055
19:00+30юв711160 0.0 1013621
22:00+23вюв511220 0.0 1013184
17 мая, пн
пн1701:00+22в512250 0.0 1012195
04:00+20вюв510340 0.0 1012148
07:00+23вюв714380 0.0 1012341
10:00+30юв912200 0.0 10131353
13:00+33юв1112110 0.0 10122951
16:00+33юв1011124 0.0 10112872
19:00+30юв711144 0.0 1010530
22:00+25в47185 0.0 101099
18 мая, вт
вт1801:00+23в59211 0.0 1009130
04:00+23в816304 0.0 1008300
07:00+24вюв818300 0.0 1008484
10:00+31юв1115160 0.0 10081765
13:00+34юв1114125 0.0 10083268
16:00+33юв101213100 0.0 10082613
19:00+29ююв61118100 0.0 1009527
22:00+25юв452599 0.0 100971
19 мая, ср
ср1901:00+21юз333795 0.0 100824
04:00+20зсз2241100 0.0 100812
07:00+22зсз3347100 0.0 100892
10:00+27з223220 0.0 1007694
13:00+30зюз542816 0.0 10071658
16:00+30зюз553090 0.0 10081537
19:00+25зсз101145100 0.0 1010854
22:00+19зсз81467100 0.5 1013631
20 мая, чт
чт2001:00+18сз6106198 0.2 1015564
04:00+16з497410 0.2 1015325
07:00+16зсз58700 0.0 1017497
10:00+20з56540 0.0 10171088
13:00+23з564017 0.0 10171936
16:00+24з763726 0.0 10171957
19:00+22зсз77444 0.0 10171249
22:00+19сз35500 0.0 1018103